Location: Hemaruka
(51.7801°N, 111.0917°W)
Time: 22:18:23
(UTC+00:00)

CAS-4B - Visible Passes

Search period start: 29 November 2023 00:00
Search period end: 09 December 2023 00:00
Orbit: 495 x 508 km, 43.0° (Epoch: 29 November)

Date Brightness Start Highest point End Pass type
(mag) Time Alt. Az. Time Alt. Az. Time Alt. Az.
29 Nov ? 00:57:15 10° S 00:58:31 11° SSE 00:59:48 10° SE visible
29 Nov ? 02:34:03 10° SW 02:34:37 13° SW 02:34:37 13° SW visible
30 Nov ? 00:35:23 10° S 00:36:52 12° SSE 00:38:19 10° SE visible
30 Nov ? 02:12:22 10° SW 02:14:02 18° SSW 02:14:02 18° SSW visible
01 Dec ? 00:13:31 10° S 00:15:09 12° SSE 00:16:47 10° SE visible
01 Dec ? 01:50:39 10° SW 01:53:23 21° S 01:53:23 21° S visible
02 Dec ? 01:28:55 10° SW 01:31:56 22° S 01:32:44 20° SSE visible
03 Dec ? 01:07:09 10° SW 01:10:10 22° S 01:12:03 16° SE visible
03 Dec ? 02:46:03 10° WSW 02:46:40 13° SW 02:46:40 13° SW visible
04 Dec ? 00:45:21 10° SW 00:48:23 22° S 00:51:22 10° SE visible
04 Dec ? 02:24:18 10° WSW 02:25:59 17° SW 02:25:59 17° SW visible
05 Dec ? 00:23:32 10° SW 00:26:34 22° S 00:29:37 10° SE visible
05 Dec ? 02:02:31 10° WSW 02:05:10 18° SSW 02:05:19 18° SSW visible
06 Dec ? 00:01:40 10° SW 00:04:43 22° S 00:07:46 10° SE visible
06 Dec ? 01:40:42 10° WSW 01:43:19 17° SSW 01:44:43 15° S visible
07 Dec ? 01:18:52 10° WSW 01:21:25 17° SSW 01:23:59 10° SSE visible
08 Dec ? 00:57:00 10° WSW 00:59:30 17° SSW 01:02:00 10° SSE visible
